CW8078 Weather Reports


time (UTC)temp
C
wind
direction
speed
KPH
gust
KPH
rain 1hr
cm
rain 24hr
cm
rain mn
cm
humidity
%
barometer
mb
20260508074802 8 158 0.0 0.0 0.00 0.00 0.00 86 1010.3
20260508074302 8 158 0.0 0.0 0.00 0.00 0.00 86 1010.3
20260508073802 8 158 0.0 0.0 0.00 0.00 0.00 86 1010.4
20260508073302 8 158 0.0 0.0 0.00 0.00 0.00 86 1010.5
20260508071802 8 158 0.0 0.0 0.00 0.00 0.00 86 1010.6
20260508071302 8 158 0.0 0.0 0.00 0.00 0.00 87 1010.7
20260508070802 8 158 0.0 0.0 0.00 0.00 0.00 87 1010.8
20260508070302 8 158 0.0 0.0 0.00 0.00 0.00 87 1010.8
20260508064802 8 158 0.0 0.0 0.00 0.00 0.00 86 1010.8
20260508064302 8 158 0.0 0.0 0.00 0.00 0.00 86 1010.9
20260508063802 8 158 0.0 0.0 0.00 0.00 0.00 86 1011.0
20260508063302 8 158 0.0 0.0 0.00 0.00 0.00 86 1011.1
20260508061302 9 158 0.0 0.0 0.00 0.00 0.00 86 1011.3
20260508060802 9 158 0.0 0.0 0.00 0.00 0.00 86 1011.4
20260508060302 9 158 0.0 0.0 0.00 0.00 0.00 85 1011.4
20260508054802 9 158 0.0 0.0 0.00 0.00 0.00 84 1011.4
20260508054302 9 158 0.0 0.0 0.00 0.00 0.00 84 1011.5
20260508053302 9 158 0.0 0.0 0.00 0.00 0.00 83 1011.6
20260508051803 10 158 0.0 0.0 0.00 0.00 0.00 82 1011.6
20260508051302 10 158 0.0 0.0 0.00 0.00 0.00 81 1011.6
20260508050802 10 158 0.0 0.0 0.00 0.00 0.00 80 1011.7
20260508050303 10 158 0.0 0.0 0.00 0.00 0.00 80 1011.7
20260508044803 11 158 0.0 0.0 0.00 0.00 0.00 79 1011.8
20260508043803 11 158 0.0 0.0 0.00 0.00 0.00 77 1011.8
20260508043303 11 158 0.0 0.0 0.00 0.00 0.00 76 1011.8
20260508041803 11 158 0.0 0.0 0.00 0.00 0.00 76 1011.9
20260508041303 12 158 0.0 0.0 0.00 0.00 0.00 76 1011.9
20260508040802 12 158 0.0 0.0 0.00 0.00 0.00 75 1011.8
20260508040303 12 158 0.0 0.0 0.00 0.00 0.00 75 1011.9
20260508034802 11 158 0.0 0.0 0.00 0.00 0.00 77 1011.9
20260508034302 11 158 0.0 0.0 0.00 0.00 0.00 78 1011.8
20260508033803 11 158 0.0 0.0 0.00 0.00 0.00 78 1011.8
20260508033303 11 158 0.0 0.0 0.00 0.00 0.00 79 1011.8
20260508031802 11 158 0.0 0.0 0.00 0.00 0.00 80 1011.8
20260508031302 11 158 0.0 0.0 0.00 0.00 0.00 80 1011.8
20260508030802 11 158 0.0 0.0 0.00 0.00 0.00 78 1011.8
20260508030302 11 158 0.0 0.0 0.00 0.00 0.00 78 1011.8
20260508024803 11 158 0.0 0.0 0.00 0.00 0.00 77 1011.7
20260508024303 11 158 0.0 0.0 0.00 0.00 0.00 78 1011.7
20260508023802 11 158 0.0 0.0 0.00 0.00 0.00 77 1011.7
20260508023303 11 158 0.0 0.0 0.00 0.00 0.00 77 1011.7
20260508021302 12 158 0.0 0.0 0.00 0.00 0.00 74 1011.6
20260508020802 12 158 0.0 0.0 0.00 0.00 0.00 72 1011.6
20260508020303 12 158 0.0 0.0 0.00 0.00 0.00 73 1011.5
20260508014802 13 158 0.0 0.0 0.00 0.00 0.00 69 1011.4
20260508014302 13 158 0.0 0.0 0.00 0.00 0.00 68 1011.4
20260508013803 13 158 0.0 0.0 0.00 0.00 0.00 67 1011.4
20260508013303 13 158 0.0 0.0 0.00 0.00 0.00 67 1011.4
20260508011802 14 158 0.0 0.0 0.00 0.00 0.00 65 1011.3
20260508011302 14 158 0.0 0.0 0.00 0.00 0.00 65 1011.4
20260508010803 15 158 0.0 0.0 0.00 0.00 0.00 65 1011.4
20260508010303 15 158 0.0 0.0 0.00 0.00 0.00 63 1011.3
20260508004802 15 158 0.0 0.0 0.00 0.00 0.00 60 1011.1
20260508004302 16 158 0.0 0.0 0.00 0.00 0.00 59 1011.1
20260508003803 16 158 0.0 0.0 0.00 0.00 0.00 60 1011.1
20260508003303 16 158 0.0 1.6 0.00 0.00 0.00 58 1011.0
20260508001802 17 158 0.0 0.0 0.00 0.00 0.00 56 1010.9
20260508000803 17 158 0.0 0.0 0.00 0.00 0.00 53 1010.8
20260508000304 17 158 0.0 1.6 0.00 0.00 0.00 51 1010.8
20260507233803 18 201 0.0 0.0 0.00 0.00 0.00 47 1010.8
20260507233302 18 201 0.0 4.8 0.00 0.00 0.00 48 1010.9
20260507231802 18 201 0.0 1.6 0.00 0.00 0.00 49 1010.9
20260507231303 18 163 0.0 0.0 0.00 0.00 0.00 47 1010.9
20260507230302 18 225 0.0 1.6 0.00 0.00 0.00 50 1011.1
20260507224802 18 225 0.0 0.0 0.00 0.00 0.00 48 1011.3
20260507224302 18 216 0.0 0.0 0.00 0.00 0.00 46 1011.1
20260507223802 18 136 0.0 0.0 0.00 0.00 0.00 45 1011.3
20260507223303 18 198 0.0 8.0 0.00 0.00 0.00 46 1011.3
20260507221803 19 204 0.0 0.0 0.00 0.00 0.00 47 1011.4
20260507221303 18 194 0.0 0.0 0.00 0.00 0.00 47 1011.5
20260507220303 19 165 0.0 8.0 0.00 0.00 0.00 46 1011.4
20260507214802 18 180 0.0 0.0 0.00 0.00 0.00 47 1011.5
20260507213803 18 217 0.0 3.2 0.00 0.00 0.00 45 1011.5
20260507213303 18 212 0.0 3.2 0.00 0.00 0.00 46 1011.5
20260507211802 19 205 0.0 0.0 0.00 0.00 0.00 47 1011.6
20260507211303 19 194 0.0 0.0 0.00 0.00 0.00 48 1011.8
20260507210802 19 182 1.6 4.8 0.00 0.00 0.00 46 1011.8
20260507210303 18 204 0.0 3.2 0.00 0.00 0.00 46 1011.8
20260507204802 18 218 0.0 0.0 0.00 0.00 0.00 47 1012.2
20260507204302 18 211 0.0 4.8 0.00 0.00 0.00 46 1012.2
20260507203303 18 207 0.0 4.8 0.00 0.00 0.00 46 1012.4
20260507201302 18 202 0.0 0.0 0.00 0.00 0.00 50 1012.8
20260507200803 18 161 0.0 3.2 0.00 0.00 0.00 48 1012.8
20260507200303 18 209 0.0 0.0 0.00 0.00 0.00 48 1012.9
20260507194803 18 194 0.0 0.0 0.00 0.00 0.00 46 1013.2
20260507193804 18 209 0.0 0.0 0.00 0.00 0.00 46 1013.2
20260507193303 18 170 0.0 4.8 0.00 0.00 0.00 47 1013.3
20260507191802 18 186 0.0 4.8 0.00 0.00 0.00 44 1013.4
20260507191303 19 174 0.0 3.2 0.00 0.00 0.00 47 1013.4
20260507190803 19 169 0.0 4.8 0.00 0.00 0.00 45 1013.3
20260507190303 18 186 0.0 3.2 0.00 0.00 0.00 48 1013.4
20260507184302 18 213 0.0 0.0 0.00 0.00 0.00 45 1013.5
20260507183302 18 220 0.0 3.2 0.00 0.00 0.00 43 1013.7
20260507181303 19 173 0.0 4.8 0.00 0.00 0.00 42 1013.9
20260507180803 19 219 1.6 4.8 0.00 0.00 0.00 46 1013.9
20260507180303 19 216 0.0 9.7 0.00 0.00 0.00 43 1014.0
20260507174802 20 213 0.0 0.0 0.00 0.00 0.00 42 1014.2
20260507174302 18 227 0.0 0.0 0.00 0.00 0.00 46 1014.3
20260507173803 19 315 0.0 4.8 0.00 0.00 0.00 41 1014.4
20260507173302 19 228 0.0 1.6 0.00 0.00 0.00 43 1014.4
20260507171803 18 222 1.6 8.0 0.00 0.00 0.00 44 1014.6
20260507171303 18 258 0.0 3.2 0.00 0.00 0.00 47 1014.7
20260507170803 18 217 0.0 4.8 0.00 0.00 0.00 45 1014.8
20260507170303 18 215 0.0 4.8 0.00 0.00 0.00 45 1014.8
20260507164803 18 187 0.0 0.0 0.00 0.00 0.00 42 1015.1
20260507164303 17 204 0.0 1.6 0.00 0.00 0.00 46 1015.2
20260507163803 17 196 0.0 0.0 0.00 0.00 0.00 49 1015.1
20260507163302 17 231 0.0 1.6 0.00 0.00 0.00 45 1015.2
20260507161303 16 194 0.0 3.2 0.00 0.00 0.00 51 1015.4
20260507160803 16 197 0.0 8.0 0.00 0.00 0.00 50 1015.4
20260507160302 16 184 0.0 1.6 0.00 0.00 0.00 51 1015.5
20260507154803 16 181 0.0 4.8 0.00 0.00 0.00 51 1015.6
20260507154303 15 169 0.0 4.8 0.00 0.00 0.00 56 1015.6
20260507153803 15 224 0.0 4.8 0.00 0.00 0.00 53 1015.5
20260507153303 15 233 0.0 1.6 0.00 0.00 0.00 49 1015.6
20260507151803 15 178 0.0 4.8 0.00 0.00 0.00 56 1015.8
20260507150802 14 202 0.0 0.0 0.00 0.00 0.00 56 1015.8
20260507144803 13 177 0.0 4.8 0.00 0.00 0.00 61 1016.0
20260507144302 13 179 0.0 3.2 0.00 0.00 0.00 61 1015.9
20260507143802 13 156 0.0 4.8 0.00 0.00 0.00 61 1015.9
20260507143302 12 137 0.0 3.2 0.00 0.00 0.00 65 1015.9
20260507141803 12 153 0.0 8.0 0.00 0.00 0.00 67 1016.1
20260507141302 11 146 0.0 1.6 0.00 0.00 0.00 70 1016.1
20260507140303 11 151 0.0 0.0 0.00 0.00 0.00 74 1016.3
20260507134803 10 151 0.0 0.0 0.00 0.00 0.00 75 1016.4
20260507134303 10 148 0.0 0.0 0.00 0.00 0.00 77 1016.5
20260507133803 9 148 0.0 0.0 0.00 0.00 0.00 80 1016.5
20260507133303 8 8 0.0 1.6 0.00 0.00 0.00 81 1016.6
20260507131303 7 355 0.0 0.0 0.00 0.00 0.00 89 1016.8
20260507130803 6 355 0.0 0.0 0.00 0.00 0.00 90 1016.8
20260507130303 6 355 0.0 0.0 0.00 0.00 0.00 91 1016.9
20260507124803 5 355 0.0 0.0 0.00 0.00 0.00 93 1016.8
20260507123803 5 355 0.0 0.0 0.00 0.00 0.00 93 1016.6
20260507123303 5 355 0.0 0.0 0.00 0.00 0.00 93 1016.6
20260507121303 4 355 0.0 0.0 0.00 0.00 0.00 93 1016.4
20260507120803 4 355 0.0 0.0 0.00 0.00 0.00 93 1016.3
20260507120302 3 355 0.0 0.0 0.00 0.00 0.00 92 1016.3
20260507114803 3 355 0.0 0.0 0.00 0.00 0.00 93 1016.2
20260507114303 3 355 0.0 0.0 0.00 0.00 0.00 93 1016.2
20260507113803 3 355 0.0 0.0 0.00 0.00 0.00 93 1016.1
20260507113302 3 355 0.0 0.0 0.00 0.00 0.00 92 1016.0
20260507111803 3 355 0.0 0.0 0.00 0.00 0.00 92 1016.0
20260507111303 3 355 0.0 0.0 0.00 0.00 0.00 92 1015.9
20260507110803 3 355 0.0 0.0 0.00 0.00 0.00 91 1015.9
20260507110303 3 355 0.0 0.0 0.00 0.00 0.00 91 1015.9
20260507104803 3 355 0.0 0.0 0.00 0.03 0.00 92 1015.8
20260507103803 4 355 0.0 0.0 0.00 0.03 0.00 92 1015.8
20260507103303 4 355 0.0 0.0 0.00 0.03 0.00 92 1015.8
20260507101303 4 355 0.0 0.0 0.00 0.03 0.00 91 1015.8
20260507100803 4 355 0.0 0.0 0.00 0.03 0.00 91 1015.8
20260507100303 4 355 0.0 0.0 0.00 0.03 0.00 91 1015.8
20260507094803 4 355 0.0 0.0 0.00 0.03 0.00 91 1015.8
20260507094302 4 355 0.0 0.0 0.00 0.03 0.00 91 1015.7
20260507093803 4 355 0.0 0.0 0.00 0.03 0.00 91 1015.7
20260507093305 4 355 0.0 0.0 0.00 0.03 0.00 92 1015.8
20260507091803 4 355 0.0 0.0 0.00 0.03 0.00 91 1015.8
20260507090303 5 355 0.0 0.0 0.00 0.03 0.00 92 1015.7
20260507084803 5 355 0.0 0.0 0.00 0.03 0.00 92 1015.7
20260507084303 5 355 0.0 0.0 0.00 0.03 0.00 92 1015.6
20260507083803 5 355 0.0 0.0 0.00 0.05 0.00 92 1015.7
20260507083303 4 355 0.0 0.0 0.00 0.05 0.00 92 1015.8
20260507081803 4 355 0.0 0.0 0.00 0.05 0.00 92 1016.0
20260507080803 4 355 0.0 0.0 0.00 0.05 0.00 92 1016.0
20260507080303 4 355 0.0 0.0 0.00 0.05 0.00 91 1016.0